Find Local Weather

World > North America > United States > Massachusetts

Boston, Massachusetts Regional Weather

Lat: 42.32N, Lon: 71.07W
Wx Zone: MAZ015
Feedback
Expires:201806201400;;829434
ASUS41 KOKX 201305
RWROKX

Regional Weather Roundup
National Weather Service New York NY
900 AM EDT WED JUN 20 2018

Note: "FAIR" indicates few or no clouds below 12,000 feet with no
significant weather and/or obstructions to visibility.


CTZ002-004>006-009-010-012-RIZ004-006-007-MAZ004-011-015-201400-
Southern New England

 In CT
  
CITY           SKY/WX    TMP DP  RH WIND       PRES   REMARKS
Bradley Intl   PTSUNNY   68  54  60 CALM      29.92F                  
Hartford       PTSUNNY   68  54  60 NE5       29.91F                  
Danbury        SUNNY     66  54  63 VRB5      29.94S                  
Wtrbury/Oxford FAIR      66  51  58 CALM      29.94S                  
Norwalk Harbor   N/A     64 N/A N/A N5          N/A                   
Bridgeport     FAIR      69  54  58 N7        29.91S                  
Meriden        FAIR      68  52  56 N3        29.92F                  
New Haven      PTSUNNY   68  54  60 N8        29.91F                  
Chester        FAIR      68  54  60 CALM      29.92S                  
Groton         FAIR      70  56  61 N5        29.90F                  
Willimantic    FAIR      65  54  67 CALM      29.92F                  

 In RI
  
CITY           SKY/WX    TMP DP  RH WIND       PRES   REMARKS
Providence     PTSUNNY   72  52  49 SE6       29.91F                  
Block Island   FAIR      64  57  78 NE6       29.92S                  
Westerly       FAIR      72  55  55 NE5       29.91F                  
 
In MA
  
CITY           SKY/WX    TMP DP  RH WIND       PRES   REMARKS
Boston         FAIR      69  53  56 VRB5      29.91F                  
Worcester      FAIR      68  48  48 SE9       29.93F                  
Westfield      FAIR      68  54  60 N3        29.92F                  
Provincetown   FAIR      67  56  67 NW5       29.92F                  
Nantucket      FAIR      70  59  68 SW7       29.92S                  
$$


SKY/WX - Weather  TMP - Temperature  DP - Dewpoint  RH - Relative Humidity
WIND - Wind Direction/Speed PRES - Barometric Pressure